カタログに戻る

ONEWEB-0446

運用中通信PO
NORAD 51640·PAYLOAD·🇬🇧 United Kingdom

打ち上げ Feb 10, 2022 から Guiana Space Centre

Loading…

次のパス (今後24時間)

TLE

最新Source: CelesTrak SupGP

元期: Sep 14, 2026, 21:57 UTC

1 51640C 22012U   26257.91508516 -.00001867  00000+0 -53542-2 0  2571
2 51640  87.8891  18.4167 0001470 110.5633   2.2249 13.10369491    14

AllMySatでONEWEB-0446をリアルタイム追跡

Download on the App Store